Location: Le Petit-Vavre
(46.5081°N, 1.5239°E)
Time: 17:26:23
(UTC+00:00)

Resurs 01 Rocket - Pass Details

Date: 03 March 2021
Orbit: 635 x 643 km, 98.0° (Epoch: 14 April)

Event Time Altitude Azimuth Distance (km) Brightness Sun altitude
Exits shadow 20:50:15 27° 328° (NNW) 1,216 3.5 -32.1°
Drops below altitude 10° 20:52:24 10° 339° (NNW) 2,034 4.7 -32.5°
Sets 20:54:39 0° 344° (NNW) 2,948 5.6 -32.8°
